User: anonymous   Login
Location: Bassano
(45.7667°N, 11.7333°E)
Time: 17:35:30
(UTC+00:00)
Language:

STARLINK-1312 - Orbit

View from above orbital plane
View from above orbital plane
View from above satellite
View from above satellite

Ground track
Ground track

The orbit data is extracted from the following two-line orbital elements,

1 45398C 20019AQ  21137.40572749  .00006232  00000-0  41750-3 0  1370
2 45398  53.0541 115.3737 0001022  47.4791 102.4565 15.06398180    18
Epoch (UTC): 17 May 2021 09:44:14
Eccentricity: 0.0001022
inclination: 53.0541°
perigee height: 546 km
apogee height: 548 km
right ascension of ascending node: 115.3737°
argument of perigee: 47.4791°
revolutions per day: 15.06398180
mean anomaly at epoch: 102.4565°
orbit number at epoch: 1

The dashed part of the orbit path shows where the satellite is in the earth's shadow,  

DLR